weather.gov     
National Weather Service

Terminal Aerodrome Forecast
NWS Homepage
This page is being discontinued on March 12, 2014.
The same data is available at this site. Please update your bookmarks.
Thank you, and we apologize for the inconvenience.
Please send an email to SR-SRH.Webmaster@noaa.gov with any concerns.


Current Version
Previous Version:    01  02  03  04  05  06  07  08  09  10  11  12  13  14  15  16  17  18  19  20  21  22  23  24  25  26  27  28  29  30  
   31  32  33  34  35  36  37  38  39  40  41  42  43  44  45  46  47  
[Printable]
469
FTUS41 KBTV 260005 AAA
TAFSLK
TAF AMD
KSLK 260005Z 2600/2624 23007KT 6SM -SHRA BR BKN035
      TEMPO 2600/2603 BKN012 OVC035
     FM260500 24007G15KT 6SM -SHRA BR OVC015
      TEMPO 2611/2615 OVC008
     FM261500 25009G20KT 6SM -SHRA BR OVC015=




469
FTUS41 KBTV 260005 AAA
TAFSLK
TAF AMD
KSLK 260005Z 2600/2624 23007KT 6SM -SHRA BR BKN035
      TEMPO 2600/2603 BKN012 OVC035
     FM260500 24007G15KT 6SM -SHRA BR OVC015
      TEMPO 2611/2615 OVC008
     FM261500 25009G20KT 6SM -SHRA BR OVC015=


U.S. Dept. of Commerce
NOAA National Weather Service
1325 East West Highway
Silver Spring, MD 20910
E-mail: w-nws.webmaster@noaa.gov
Page last modified: May 16, 2007
NATIONAL WEATHER SERVICE: for Safety, for Work, for Fun - FOR LIFE